Zurück zum Katalog

COSMOS 2251 DEB

AktivLEO
NORAD 34979·DEBRIS·🇷🇺 Russia

Gestartet Jun 16, 1993 von Plesetsk Cosmodrome

Loading…

Nächste Überflüge (nächste 24 Stunden)

TLE

AktuellSource: Space-Track

Epoche: Sep 14, 2026, 11:59 UTC

1 34979U 93036AFJ 26257.49955512  .00005130  00000-0  61949-3 0  9996
2 34979  74.0361  82.7203 0045670  92.5213 268.1195 14.83279777923046

Verfolge COSMOS 2251 DEB in Echtzeit mit AllMySat

Download on the App Store